Regional Weather Roundup
Issued by NWS

Home | Current Version | Previous Version | Text Only | Print | Product List | Glossary Off
Versions: 1 2 3 4 5 6 7 8 9 10 11 12 13 14 15 16 17 18 19 20 21 22 23 24 25 26 27 28 29 30 31 32 33 34 35 36 37 38 39 40 41 42 43 44 45 46 47 48 49 50

000
ASUS43 KMKX 160321
RWRWI

WISCONSIN REGIONAL WEATHER ROUNDUP
NATIONAL WEATHER SERVICE MILWAUKEE/SULLIVAN WI
1000 PM CDT TUE AUG 15 2017

NOTE: "FAIR" INDICATES FEW OR NO CLOUDS BELOW 12,000 FEET WITH NO
SIGNIFICANT WEATHER AND/OR OBSTRUCTIONS TO VISIBILITY.

WIZ001-002-006>008-014>016-023>028-160400-
NORTHWEST WISCONSIN

CITY           SKY/WX    TMP DP  RH WIND       PRES   REMARKS
SUPERIOR ARPT    N/A     62  60  94 NE9       29.99R
ASHLAND        CLOUDY    56  54  93 E5        30.00F
HAYWARD        CLOUDY    62  57  83 E5        29.99S
SIREN          CLOUDY    62  60  94 CALM      29.97R
CUMBERLAND     CLOUDY    61  59  94 E5        29.98R
RICE LAKE      CLOUDY    61  58  90 CALM      29.99R FOG
CHETEK         CLOUDY    61  61  99 CALM      29.97S
LADYSMITH      CLOUDY    62  58  87 E3        30.01R
EAU CLAIRE     PTCLDY    62  58  86 NE3       29.96R
MENOMONIE      CLOUDY    65  60  85 CALM      29.97S
NEW RICHMOND   PTCLDY    63  58  85 CALM      29.97S
OSCEOLA        PTCLDY    63  58  84 CALM      29.99R
$$

WIZ003>005-009-010-017-018-160400-
NORTH CENTRAL WISCONSIN

CITY           SKY/WX    TMP DP  RH WIND       PRES   REMARKS
MANITOWISH WTR CLOUDY    54  54 100 CALM      30.03S
ARBOR VITAE    CLOUDY    62  54  74 CALM      30.03S
WOODRUFF       CLOUDY    62  54  74 CALM      30.03S
RHINELANDER    CLOUDY    58  54  86 NE3       30.03S
EAGLE RIVER    CLOUDY    52  52  99 CALM      30.03S
LAND O LAKES   CLOUDY    52  51  96 CALM      30.05S
PHILLIPS       PTCLDY    60  57  91 CALM      30.01S
TOMAHAWK         N/A     54  53  95 CALM      30.03R FOG
MEDFORD        CLOUDY    61  55  82 E5        30.00S
MERRILL        PTCLDY    57  57 100 CALM      30.02R
$$

WIZ029-030-035-036-043>047-160400-
CENTRAL WISCONSIN

CITY           SKY/WX    TMP DP  RH WIND       PRES   REMARKS
WAUSAU         CLOUDY    64  57  78 CALM      30.00R
MOSINEE        PTCLDY    63  61  94 E5        30.01S
MARSHFIELD     CLOUDY    63  56  78 CALM      29.99R
STEVENS POINT  CLOUDY    62  60  94 CALM      30.01R
WAUPACA        CLOUDY    65  62  88 CALM      30.00R
WAUTOMA        PTCLDY    61  60  97 CALM      30.01R
WISC RAPIDS    MOCLDY    62  57  83 CALM      30.01R
CAMP DOUGLAS   MOCLDY    57  57 100 CALM      29.98R
$$

WIZ011>013-019>022-031-037>040-048>050-160400-
NORTHEAST WISCONSIN

CITY           SKY/WX    TMP DP  RH WIND       PRES   REMARKS
ANTIGO         CLOUDY    57  56  95 CALM      30.02S
SHAWANO        CLOUDY    64  60  90 CALM      30.00S
OCONTO         MOCLDY    59  58  97 CALM      30.00R
STURGEON BAY   CLOUDY    63  60  90 E3        30.01S
GREEN BAY      MOCLDY    62  62 100 CALM      30.00R
MANITOWOC      PTCLDY    61  59  93 CALM      30.01S
APPLETON       MOCLDY    64  57  77 SE5       29.99R
CLINTONVILLE   CLOUDY    61  59  94 CALM      30.01R
OSHKOSH        PTCLDY    64  60  87 SE5       30.00R
$$

WIZ032>034-041-042-053>061-160400-
SOUTHWEST WISCONSIN

CITY           SKY/WX    TMP DP  RH WIND       PRES   REMARKS
LA CROSSE      PTCLDY    69  64  84 E6        29.96R
SPARTA         CLEAR     61  60  97 CALM      29.99R
VIROQUA        PTCLDY    62  62  99 SE5       29.99R
BOSCOBEL       MOCLDY    63  62  97 CALM      29.98R
PRAIRIE DU CHI CLOUDY    65  61  88 CALM      29.97R
PLATTEVILLE    CLOUDY    65  65  99 E5        29.99R
$$

WIZ056-057-062-063-064-067-068-160400-
SOUTH CENTRAL WISCONSIN

CITY           SKY/WX    TMP DP  RH WIND       PRES   REMARKS
REEDSBURG      PTCLDY    65  64  96 NE3       29.98S
BARABOO/DELLS  PTCLDY    66  59  79 E3        29.99R
LONE ROCK      PTCLDY    64  63  96 CALM      29.98R
MINERAL POINT  PTCLDY    64  64 100 E5        29.99R
MADISON        MOCLDY    69  62  78 E8        29.99R
MIDDLETON      MOCLDY    65  62  91 CALM      30.00R
WATERTOWN      PTCLDY    63  63  98 E5        30.00R
MONROE         PTCLDY    64  63  94 E5        29.99R
JANESVILLE     PTCLDY    64  63  94 E3        30.00R
$$

WIZ051-052-058>065-066-070>072-160400-
SOUTHEAST WISCONSIN

CITY           SKY/WX    TMP DP  RH WIND       PRES   REMARKS
MILWAUKEE      MOCLDY    67  60  78 NE7       29.99R
WAUKESHA       NOT AVBL
MILWAUKEE/TIMM PTCLDY    64  55  72 CALM      30.01R
RACINE         CLOUDY    64  59  83 NE7       30.01R
KENOSHA        CLEAR     61  60  97 NE3       30.00R
FOND DU LAC    CLOUDY    64  58  80 E7        30.01R
SHEBOYGAN      PTCLDY    60  60 100 CALM      30.00S
WEST BEND      CLOUDY    59  59 100 CALM      30.01R
JUNEAU         CLOUDY    63  60  90 E3        30.02R
$$

LSZ147-162-160400-
LAKE SUPERIOR

STATION/POSITION TIME  TEMP    WIND        PRES    WAVE
                       AIR SEA DIR/SP/G            HT/PER
                 (UTC) (F)     (DEG/KT/KT) (MB)    (FT/S)
W MID LAKE BUOY  0150   61 60   60/  6/  6 1016.8R   1
DEVILS ISLAND    0200   61      70/ 12/ 13 1016.5F
PORT WING        0040   68      70/  3/  5 1015.6
SAXON HARBOR     0240   58     190/  2/  4 1015.2F
$$

LMZ867-665-643>646-160400-
LAKE MICHIGAN

STATION/POSITION TIME  TEMP    WIND        PRES    WAVE
                       AIR SEA DIR/SP/G            HT/PER
                 (UTC) (F)     (DEG/KT/KT) (MB)    (FT/S)
S GREEN BAY BUOY 0300   67 72  120/  8/ 10 1015.5
N MID LAKE BUOY  0150   67 68   10/ 12/ 14 1016.4R   1
NORTHPORT PIER   0240   66      30/  9/ 11 1016.3R
KEWAUNEE LAKESHO 0254   66      80/  3/  5 1015.2R
SHEBOYGAN LAKESH 0200   68      50/  7/  8 1015.4R
PORT WASHINGTON  0230   68     360/  3/  5 1016.6R
ATWATER BUOY     0209   70 71   40/ 10/ 14 1015.7R
MILWAUKEE LAKESH 0300   69      50/ 10/ 11   N/A
S MID LAKE BUOY  0150   69 71   30/ 12/ 14 1014.7R   2/ 5
KENOSHA   LAKESH 0200   70      50/ 10/ 12 1014.9
$$

TC  - TEMPERATURE IN CELSIUS
VSB - VISIBILITY IN STATUTE MILES
WCI - WIND CHILL INDEX
HX  - HEAT INDEX





USA.gov is the U.S. government's official web portal to all federal, state and local government web resources and services.